{"data":{"norad_id":48970,"epoch":"2026-09-20T03:44:36.563136Z","epoch_age_seconds":51970,"freshness":"FRESH","line1":"1 48970U 21060D   26263.15597874  .00000107  00000+0  24569-3 0  9998","line2":"2 48970  87.9157 209.9160 0002106  86.8191 273.3181 13.16597061252155","mean_motion":13.16597061,"eccentricity":0.0002106,"inclination_deg":87.9157,"raan_deg":209.916,"arg_perigee_deg":86.8191,"mean_anomaly_deg":273.3181,"bstar":0.00024569,"rev_number":25215,"period_min":109.37287061132,"perigee_km":1196.1504297294,"apogee_km":1199.3413916113,"semimajor_km":7575.8829106704,"source":"CELESTRAK","updated_at":"2026-09-20T09:00:44.623489Z"}}